Wind_Speed
8 8 8 8 8 8 8 8 8 8 8 8 7 7 7 7 6 6 7 6 6 6 6 6 7 7 7 7 7 8 7 7 8 8 9 9 9 10 11 11 10 10 11
8 8 8 8 8 8 8 8 8 7 7 7 7 7 7 6 6 6 6 6 7 7 6 6 6 6 6 7 7 8 7 7 8 8 8 8 9 10 10 11 11 11 11
8 8 9 9 9 8 8 8 8 7 6 7 7 7 6 6 6 6 6 5 6 6 6 6 6 6 6 6 7 7 8 8 8 8 8 8 9 9 9 10 11 11 12
8 9 9 9 9 9 8 8 7 6 6 6 7 6 6 6 6 6 6 6 6 6 6 6 6 6 6 7 7 7 7 7 8 8 9 8 9 9 9 9 10 11 11
9 9 9 9 9 9 9 8 7 7 7 7 7 7 6 6 5 5 6 6 6 6 6 6 6 6 7 7 7 7 7 7 8 8 8 8 8 9 9 9 9 9 10
10 10 10 10 9 9 9 9 8 8 8 7 7 7 6 6 6 6 6 6 6 6 6 7 6 7 7 7 7 7 7 7 7 8 8 8 9 9 9 9 9 9 9
10 10 10 10 10 10 10 9 9 8 8 8 8 7 7 6 6 6 6 6 6 7 7 6 6 6 6 7 7 7 7 7 7 7 8 8 8 9 8 8 8 8 9
11 11 11 11 11 11 11 10 10 9 9 9 9 8 8 7 7 7 7 7 7 7 7 7 7 7 7 7 7 7 7 7 7 7 7 7 7 8 8 8 8 7 8
12 12 12 12 12 11 11 11 11 10 10 10 10 9 9 8 8 8 8 7 8 8 8 7 7 7 7 7 7 8 8 8 8 8 8 7 7 7 7 7 8 8 9
13 13 13 13 13 12 12 12 12 12 11 11 10 10 10 9 8 9 8 8 8 8 7 7 7 8 8 8 8 8 8 8 8 9 9 9 8 8 8 8 9 9 9
14 14 14 14 14 14 13 12 12 12 12 12 12 12 11 10 10 9 9 9 9 9 8 8 8 8 8 8 8 8 8 8 8 8 9 9 9 9 9 9 9 8 9
16 16 15 15 15 15 14 14 14 13 13 13 13 12 11 11 11 11 10 10 10 10 9 9 9 9 9 8 8 8 8 9 9 9 9 9 10 10 10 10 10 9 9
17 17 17 16 16 16 15 15 15 15 14 14 14 14 13 13 12 12 12 11 11 11 12 11 11 10 10 10 9 9 9 10 10 10 10 10 10 10 11 11 11 10 11
18 17 17 17 17 17 17 16 16 16 16 15 15 15 15 14 13 13 13 13 13 12 12 12 12 11 10 11 11 10 10 10 11 11 11 11 12 12 12 12 12 12 12
18 18 18 18 18 18 18 18 18 18 17 17 16 16 16 15 14 14 14 14 14 13 13 12 12 11 11 12 12 12 11 11 12 12 12 12 13 13 13 13 13 13 14
19 19 19 19 19 19 19 19 19 19 19 18 18 18 17 16 16 15 15 15 14 14 14 14 13 13 13 13 14 13 13 13 13 13 13 14 14 14 14 15 15 15 15
20 20 20 20 19 19 20 21 20 20 20 20 19 19 19 18 18 17 16 16 16 16 15 15 15 15 15 15 15 15 15 15 14 14 15 15 16 16 16 16 16 16 17
22 22 21 21 21 21 21 21 22 21 22 21 20 20 20 20 19 19 18 18 17 17 16 16 16 16 16 17 17 17 16 16 16 16 16 16 16 16 17 17 18 18 18
24 24 23 22 22 22 23 23 23 23 22 22 22 22 22 21 20 20 19 19 19 18 18 18 17 17 18 18 18 19 19 19 19 19 18 18 18 18 18 19 19 19 20
25 24 24 24 23 23 23 23 24 23 23 23 23 23 23 22 21 21 21 21 21 20 20 20 19 20 20 20 20 21 21 21 21 21 20 20 20 20 20 21 21 21 22
26 25 25 25 24 24 24 24 25 24 23 23 23 23 23 24 23 23 23 23 23 23 22 22 22 22 22 22 22 22 21 22 22 22 23 23 23 23 23 24 24 24 24
26 25 25 25 25 25 25 25 25 26 25 24 24 24 25 26 26 25 25 25 24 24 24 24 24 24 24 24 24 24 23 23 23 24 24 25 25 25 25 26 26 26 26
25 25 25 25 25 25 25 25 26 27 27 26 26 26 26 25 26 26 26 26 26 26 26 26 25 25 25 25 25 25 24 24 24 25 25 26 26 27 27 27 27 28 28
25 25 26 26 25 26 26 26 26 26 27 27 27 28 28 27 26 27 27 27 26 26 26 26 26 26 26 26 25 25 25 25 25 26 26 27 27 28 28 28 29 30 30
27 27 26 26 26 26 26 26 26 26 27 27 28 28 28 28 28 28 28 28 27 27 27 27 27 27 27 27 27 27 27 27 28 28 27 27 28 29 30 30 31 31 31
28 28 28 27 27 26 26 25 25 26 26 27 27 28 28 28 28 29 28 28 28 28 28 28 28 28 28 29 29 28 28 28 29 29 29 29 29 30 30 31 31 32 33
Wind_Direction
289 292 291 291 291 291 293 293 292 289 288 290 293 294 293 287 281 276 272 268 269 271 267 270 268 266 267 268 265 262 260 258 257 259 262 266 271 267 266 263 259 256 256
287 289 289 291 291 291 295 297 295 292 292 292 295 295 294 289 283 277 275 270 267 267 265 271 269 268 271 267 263 260 262 262 258 259 264 267 272 271 268 260 258 258 258
286 289 289 291 291 290 295 296 295 291 291 290 293 293 293 292 290 281 278 281 277 268 271 272 266 265 271 272 265 260 262 262 261 264 269 270 275 279 272 267 263 263 262
283 286 289 290 289 288 290 293 289 286 291 292 292 295 295 294 288 283 280 281 281 274 272 273 267 266 273 274 267 261 261 264 267 267 269 271 272 275 275 274 272 270 269
282 284 287 288 286 285 285 287 287 285 290 290 287 291 296 295 290 283 282 280 276 271 271 275 272 272 272 275 268 264 265 266 268 270 270 271 275 277 276 275 273 275 275
279 282 284 285 284 282 282 281 283 283 284 285 285 288 292 292 288 281 279 278 276 273 272 274 271 275 276 278 274 266 266 267 269 273 278 278 275 274 277 276 276 277 278
275 278 279 281 282 282 280 279 279 278 278 280 282 285 290 291 286 279 275 276 277 274 274 272 272 277 279 277 277 271 264 265 269 276 280 280 276 273 272 276 281 281 283
273 277 279 282 282 281 279 277 276 274 274 274 275 278 282 288 288 281 275 275 276 278 277 271 271 276 281 281 277 275 270 267 271 275 278 280 278 277 276 276 280 285 286
273 276 278 279 278 278 277 277 274 273 275 274 274 276 278 283 287 281 274 274 276 278 275 268 267 273 279 280 276 276 274 270 272 275 278 284 282 281 281 279 281 286 287
273 275 276 276 275 276 274 276 274 272 274 276 276 278 276 278 282 282 276 274 276 277 273 267 269 273 277 279 277 276 273 270 272 274 278 281 279 280 280 280 286 289 292
269 271 273 273 273 273 270 272 273 271 271 272 274 275 275 275 276 276 273 275 276 272 272 272 276 278 278 281 280 275 273 272 272 273 274 274 276 279 282 282 286 294 295
265 268 269 271 272 271 269 270 270 270 271 271 272 273 273 272 271 271 270 274 274 272 271 272 276 277 278 277 281 278 272 269 270 271 272 271 272 276 279 282 288 290 294
265 265 266 268 269 268 268 268 267 268 269 270 272 270 271 271 269 267 267 269 271 273 273 272 272 272 274 275 278 279 274 273 272 271 272 270 273 275 279 285 288 290 291
264 264 264 266 266 266 265 266 267 267 269 269 270 270 270 270 267 266 267 267 269 270 271 271 270 269 272 276 276 276 277 276 273 272 272 272 273 275 278 281 284 288 289
261 263 263 265 265 265 264 265 264 266 268 267 267 267 268 268 266 266 267 267 266 266 267 271 271 269 270 274 274 274 274 274 273 272 273 275 276 276 278 281 282 285 288
260 262 262 265 266 265 264 264 263 264 265 266 266 264 263 264 265 266 266 266 265 266 266 268 270 269 270 272 272 272 272 272 272 272 273 275 277 278 279 280 281 284 287
259 261 261 262 264 265 264 263 263 263 264 265 264 262 261 261 262 263 264 264 264 265 264 266 268 269 272 271 272 272 272 270 269 272 274 275 276 276 279 281 282 284 286
258 260 262 263 263 263 264 263 263 263 264 263 262 260 259 259 262 262 262 262 263 262 263 265 268 269 270 271 272 272 273 270 268 270 272 273 276 278 279 280 281 282 283
258 259 261 263 264 264 263 264 263 263 262 262 261 260 258 259 260 262 263 262 262 262 263 265 269 271 273 274 276 277 275 273 272 273 273 274 275 277 279 282 283 283 283
259 259 261 263 264 265 264 264 264 263 261 261 260 259 259 259 260 262 262 262 262 262 264 266 268 270 272 274 275 278 276 273 273 273 273 274 275 275 277 279 281 281 281
259 260 261 263 263 265 265 265 264 264 261 260 260 258 259 259 260 261 260 261 262 263 263 265 268 270 271 273 275 276 273 271 272 273 274 274 275 275 276 278 279 281 281
259 260 261 262 262 263 263 263 263 262 262 260 259 259 259 259 260 261 260 261 261 263 264 265 267 269 271 273 274 274 273 272 273 274 274 274 275 276 276 277 279 280 281
259 260 261 261 261 262 262 262 263 263 263 263 261 261 262 262 260 260 262 262 262 263 264 265 267 270 271 273 273 272 271 271 273 274 275 275 275 275 277 278 279 280 281
260 260 261 262 262 262 263 263 263 264 264 264 263 262 263 261 260 260 262 262 263 265 266 267 269 270 272 272 272 271 270 271 272 274 275 276 277 277 277 278 280 280 281
260 259 260 261 261 261 263 264 265 265 264 264 264 264 264 262 262 262 263 263 265 267 268 269 269 271 271 271 271 271 271 271 273 274 275 277 278 278 278 278 279 280 281
259 259 259 260 260 260 261 263 264 264 265 264 265 265 265 264 264 263 263 264 265 266 268 269 270 271 271 271 271 271 272 271 272 273 275 276 277 277 277 278 279 280 281
Height
5861 5860 5860 5859 5858 5857 5856 5855 5854 5853 5852 5851 5850 5849 5849 5848 5847 5846 5846 5845 5845 5844 5844 5843 5843 5843 5843 5842 5842 5842 5842 5841 5841 5841 5841 5841 5840 5840 5840 5839 5839 5838 5838
5859 5858 5858 5857 5856 5855 5854 5853 5852 5851 5850 5849 5849 5848 5847 5846 5845 5845 5844 5844 5843 5843 5842 5842 5841 5841 5841 5841 5840 5840 5840 5839 5839 5839 5839 5839 5839 5837 5837 5837 5836 5836 5836
5857 5856 5856 5855 5854 5853 5852 5851 5850 5849 5848 5848 5847 5846 5845 5844 5844 5843 5843 5842 5841 5841 5841 5840 5840 5839 5839 5839 5838 5838 5838 5838 5838 5837 5837 5836 5836 5835 5835 5834 5834 5834 5833
5855 5854 5854 5853 5852 5851 5850 5850 5848 5848 5847 5846 5845 5845 5844 5843 5842 5841 5841 5840 5840 5839 5839 5839 5838 5838 5837 5837 5837 5836 5836 5836 5835 5835 5835 5834 5834 5833 5833 5832 5831 5831 5831
5853 5852 5852 5851 5850 5849 5848 5848 5847 5846 5845 5845 5844 5843 5842 5841 5841 5840 5839 5839 5838 5838 5837 5837 5837 5836 5836 5835 5835 5834 5834 5834 5833 5833 5832 5832 5832 5831 5831 5830 5829 5829 5828
5850 5850 5849 5849 5848 5847 5846 5846 5845 5844 5844 5843 5842 5842 5841 5840 5839 5838 5838 5837 5837 5836 5836 5835 5835 5834 5834 5833 5833 5832 5832 5832 5831 5831 5830 5830 5829 5829 5828 5828 5827 5826 5826
5847 5847 5846 5846 5845 5845 5844 5843 5843 5842 5842 5841 5841 5840 5839 5838 5837 5837 5836 5835 5835 5834 5834 5833 5833 5832 5832 5831 5831 5830 5830 5830 5829 5828 5828 5827 5827 5827 5826 5826 5825 5824 5823
5844 5844 5843 5843 5842 5842 5841 5841 5841 5840 5840 5839 5839 5838 5837 5836 5835 5835 5834 5834 5833 5832 5832 5831 5831 5830 5830 5829 5829 5828 5828 5827 5827 5826 5826 5825 5825 5824 5824 5823 5823 5822 5821
5841 5841 5840 5840 5840 5839 5839 5838 5838 5838 5837 5837 5836 5836 5835 5834 5833 5833 5832 5832 5831 5831 5830 5829 5829 5829 5828 5827 5827 5826 5826 5825 5825 5824 5824 5823 5822 5822 5821 5821 5821 5820 5819
5837 5837 5837 5837 5836 5836 5836 5835 5835 5834 5834 5834 5833 5833 5832 5831 5831 5830 5830 5829 5829 5828 5828 5827 5827 5826 5826 5825 5824 5824 5824 5823 5823 5822 5822 5821 5821 5820 5819 5819 5818 5818 5817
5833 5833 5833 5833 5832 5832 5832 5832 5831 5831 5831 5831 5830 5830 5829 5828 5828 5828 5827 5827 5826 5826 5825 5825 5825 5824 5824 5823 5822 5822 5821 5821 5821 5820 5820 5819 5819 5818 5817 5817 5816 5815 5814
5829 5829 5829 5828 5828 5828 5828 5828 5828 5827 5827 5827 5827 5826 5826 5825 5825 5825 5824 5824 5823 5823 5823 5822 5822 5821 5821 5820 5820 5819 5819 5819 5818 5818 5817 5817 5816 5816 5815 5815 5814 5813 5812
5823 5824 5824 5824 5824 5824 5824 5824 5823 5823 5823 5823 5823 5823 5822 5822 5822 5821 5821 5821 5821 5820 5820 5819 5819 5818 5818 5818 5817 5817 5816 5816 5815 5815 5815 5814 5814 5813 5812 5812 5811 5810 5809
5818 5818 5819 5819 5819 5819 5819 5819 5819 5819 5819 5819 5819 5818 5818 5818 5818 5818 5818 5817 5817 5817 5817 5816 5816 5815 5815 5815 5814 5814 5813 5813 5813 5812 5811 5811 5811 5810 5809 5809 5808 5807 5806
5812 5813 5813 5814 5814 5814 5814 5814 5814 5814 5814 5814 5814 5814 5814 5814 5814 5814 5814 5814 5813 5813 5813 5813 5812 5812 5812 5811 5811 5810 5810 5809 5809 5809 5808 5808 5807 5807 5806 5805 5804 5803 5802
5806 5807 5807 5808 5808 5808 5808 5809 5809 5809 5809 5809 5809 5809 5809 5809 5809 5809 5809 5809 5809 5809 5809 5809 5809 5808 5808 5808 5807 5807 5806 5806 5805 5805 5804 5804 5803 5802 5802 5801 5800 5799 5798
5800 5800 5801 5801 5802 5802 5802 5803 5803 5803 5803 5803 5803 5803 5804 5804 5804 5804 5804 5804 5804 5805 5805 5805 5804 5804 5804 5803 5803 5802 5802 5801 5801 5801 5800 5799 5799 5798 5797 5796 5796 5795 5794
5793 5793 5794 5795 5795 5795 5796 5796 5796 5797 5797 5797 5797 5797 5798 5798 5799 5799 5799 5799 5799 5799 5800 5800 5800 5799 5799 5799 5798 5798 5797 5797 5796 5796 5795 5795 5794 5793 5792 5791 5791 5790 5789
5785 5786 5787 5788 5788 5788 5789 5789 5789 5790 5790 5790 5791 5791 5791 5792 5792 5793 5793 5793 5794 5794 5794 5794 5794 5794 5794 5794 5793 5792 5792 5791 5791 5791 5790 5789 5789 5788 5787 5786 5785 5784 5783
5778 5779 5779 5780 5781 5781 5781 5781 5782 5782 5783 5783 5784 5784 5785 5785 5786 5786 5787 5787 5788 5788 5788 5789 5789 5788 5788 5788 5787 5786 5786 5785 5785 5784 5784 5783 5783 5782 5781 5780 5779 5778 5777
5770 5771 5772 5773 5773 5774 5774 5774 5774 5775 5775 5776 5776 5777 5778 5778 5779 5779 5780 5780 5781 5781 5782 5782 5782 5782 5781 5781 5781 5780 5779 5779 5778 5778 5777 5777 5776 5775 5774 5774 5773 5771 5770
5762 5763 5764 5765 5765 5766 5766 5766 5767 5767 5767 5768 5768 5769 5770 5770 5771 5772 5772 5773 5773 5774 5774 5775 5775 5775 5774 5774 5773 5773 5772 5772 5771 5771 5770 5769 5768 5768 5767 5766 5765 5764 5763
5753 5754 5755 5756 5757 5757 5758 5758 5758 5758 5759 5759 5760 5760 5761 5761 5762 5763 5764 5765 5765 5765 5766 5767 5767 5767 5766 5766 5765 5765 5764 5764 5764 5763 5762 5761 5760 5760 5759 5758 5757 5756 5755
5745 5746 5747 5747 5748 5749 5749 5750 5750 5750 5750 5750 5751 5751 5752 5752 5753 5755 5756 5756 5757 5757 5758 5758 5758 5758 5758 5758 5757 5756 5756 5756 5755 5755 5754 5753 5752 5751 5750 5750 5749 5747 5746
5736 5737 5738 5739 5740 5740 5741 5741 5741 5741 5742 5742 5742 5742 5743 5743 5744 5745 5746 5747 5748 5748 5749 5749 5749 5749 5750 5749 5749 5748 5748 5747 5747 5746 5745 5744 5743 5743 5741 5740 5739 5738 5736
5727 5728 5729 5730 5731 5731 5732 5732 5733 5733 5733 5733 5733 5733 5734 5734 5735 5736 5737 5738 5739 5739 5739 5740 5740 5740 5740 5740 5740 5739 5739 5738 5737 5737 5736 5735 5734 5733 5732 5731 5729 5728 5726